Terug naar catalogus

STARLINK-34336

ActiefCommunicatieVLEO
NORAD 64462·PAYLOAD·🇺🇸 United States

Gelanceerd Jun 18, 2025 vanaf Cape Canaveral Space Force Station

Loading…

Volgende Passages (komende 24 uur)

TLE

VersSource: CelesTrak SupGP

Epoch: Sep 15, 2026, 03:08 UTC

1 64462C 25130AA  26258.13104167  .00004777  00000+0  15360-3 0  2589
2 64462  53.1592 289.6856 0001272  87.2677 183.5167 15.31705751    19

Volg STARLINK-34336 in realtime met AllMySat

Download on the App Store